| time (UTC) | temp C | wind direction | speed KPH | gust KPH | rain 1hr cm | rain 24hr cm | rain mn cm | humidity % | barometer mb |
| 20260508142516 | 11 | 66 | 3.2 | 6.4 | 0.00 | 0.00 | 0.00 | 38 | 1018.7 |
| 20260508141516 | 11 | 33 | 3.2 | 4.8 | 0.00 | 0.00 | 0.00 | 39 | 1018.7 |
| 20260508140530 | 10 | 86 | 3.2 | 8.0 | 0.00 | 0.00 | 0.00 | 41 | 1018.7 |
| 20260508135520 | 9 | 67 | 4.8 | 9.7 | 0.00 | 0.00 | 0.00 | 43 | 1018.7 |
| 20260508134541 | 8 | 74 | 6.4 | 9.7 | 0.00 | 0.00 | 0.00 | 48 | 1018.6 |
| 20260508133540 | 8 | 80 | 6.4 | 11.3 | 0.00 | 0.00 | 0.00 | 54 | 1018.6 |
| 20260508132541 | 7 | 83 | 8.0 | 9.7 | 0.00 | 0.00 | 0.00 | 59 | 1018.6 |
| 20260508131518 | 6 | 177 | 1.6 | 4.8 | 0.00 | 0.00 | 0.00 | 61 | 1018.6 |
| 20260508130518 | 5 | 179 | 1.6 | 4.8 | 0.00 | 0.00 | 0.00 | 62 | 1018.6 |
| 20260508125518 | 5 | 224 | 3.2 | 4.8 | 0.00 | 0.00 | 0.00 | 64 | 1018.6 |
| 20260508124521 | 4 | 93 | 4.8 | 8.0 | 0.00 | 0.00 | 0.00 | 64 | 1018.4 |
| 20260508123522 | 2 | 101 | 6.4 | 9.7 | 0.00 | 0.00 | 0.00 | 69 | 1018.4 |
| 20260508122602 | 1 | 98 | 4.8 | 8.0 | 0.00 | 0.00 | 0.00 | 74 | 1018.4 |
| 20260508121522 | 0 | 101 | 4.8 | 9.7 | 0.00 | 0.00 | 0.00 | 78 | 1018.2 |
| 20260508120519 | 0 | 178 | 3.2 | 6.4 | 0.00 | 0.00 | 0.00 | 79 | 1018.1 |
| 20260508115519 | 0 | 187 | 4.8 | 6.4 | 0.00 | 0.00 | 0.00 | 78 | 1018.1 |
| 20260508114519 | 0 | 204 | 3.2 | 6.4 | 0.00 | 0.00 | 0.00 | 76 | 1018.1 |
| 20260508113520 | 0 | 183 | 3.2 | 4.8 | 0.00 | 0.00 | 0.00 | 77 | 1018.0 |
| 20260508112520 | 0 | 158 | 3.2 | 6.4 | 0.00 | 0.00 | 0.00 | 79 | 1018.1 |
| 20260508111520 | 1 | 151 | 3.2 | 6.4 | 0.00 | 0.00 | 0.00 | 76 | 1018.1 |
| 20260508110517 | 1 | 135 | 6.4 | 8.0 | 0.00 | 0.00 | 0.00 | 73 | 1018.0 |
| 20260508105600 | 1 | 111 | 4.8 | 6.4 | 0.00 | 0.00 | 0.00 | 75 | 1018.1 |
| 20260508104521 | 1 | 111 | 4.8 | 8.0 | 0.00 | 0.00 | 0.00 | 72 | 1018.0 |
| 20260508103523 | 2 | 88 | 4.8 | 8.0 | 0.00 | 0.00 | 0.00 | 71 | 1018.0 |
| 20260508102521 | 1 | 99 | 3.2 | 6.4 | 0.00 | 0.00 | 0.00 | 71 | 1017.9 |
| 20260508101519 | 0 | 165 | 4.8 | 9.7 | 0.00 | 0.00 | 0.00 | 79 | 1017.9 |
| 20260508100521 | 1 | 155 | 6.4 | 8.0 | 0.00 | 0.00 | 0.00 | 77 | 1017.8 |
| 20260508095521 | 2 | 143 | 4.8 | 6.4 | 0.00 | 0.00 | 0.00 | 74 | 1017.8 |
| 20260508094519 | 2 | 148 | 6.4 | 9.7 | 0.00 | 0.00 | 0.00 | 70 | 1017.9 |
| 20260508093543 | 3 | 118 | 1.6 | 3.2 | 0.00 | 0.00 | 0.00 | 68 | 1017.8 |
| 20260508092522 | 3 | 121 | 4.8 | 6.4 | 0.00 | 0.00 | 0.00 | 64 | 1017.8 |
| 20260508091522 | 3 | 131 | 3.2 | 4.8 | 0.00 | 0.00 | 0.00 | 67 | 1017.9 |
| 20260508090520 | 4 | 246 | 3.2 | 9.7 | 0.00 | 0.00 | 0.00 | 64 | 1017.8 |
| 20260508085522 | 5 | 94 | 3.2 | 6.4 | 0.00 | 0.00 | 0.00 | 63 | 1017.9 |
| 20260508084522 | 5 | 112 | 3.2 | 4.8 | 0.00 | 0.00 | 0.00 | 60 | 1017.9 |
| 20260508083520 | 5 | 62 | 8.0 | 9.7 | 0.00 | 0.00 | 0.00 | 60 | 1018.0 |
| 20260508082520 | 5 | 83 | 6.4 | 9.7 | 0.00 | 0.00 | 0.00 | 64 | 1018.0 |
| 20260508081523 | 4 | 97 | 3.2 | 6.4 | 0.00 | 0.00 | 0.00 | 65 | 1018.2 |
| 20260508080543 | 3 | 101 | 1.6 | 4.8 | 0.00 | 0.00 | 0.00 | 70 | 1018.3 |
| 20260508075524 | 2 | 157 | 6.4 | 8.0 | 0.00 | 0.00 | 0.00 | 74 | 1018.3 |
| 20260508074523 | 3 | 167 | 1.6 | 4.8 | 0.00 | 0.00 | 0.00 | 73 | 1018.3 |
| 20260508073524 | 2 | 144 | 3.2 | 4.8 | 0.00 | 0.00 | 0.00 | 77 | 1018.3 |
| 20260508072524 | 3 | 173 | 4.8 | 6.4 | 0.00 | 0.00 | 0.00 | 76 | 1018.2 |
| 20260508071521 | 3 | 175 | 6.4 | 9.7 | 0.00 | 0.00 | 0.00 | 75 | 1018.4 |
| 20260508070525 | 3 | 149 | 3.2 | 4.8 | 0.00 | 0.00 | 0.00 | 75 | 1018.5 |
| 20260508065544 | 3 | 148 | 6.4 | 8.0 | 0.00 | 0.00 | 0.00 | 76 | 1018.5 |
| 20260508064524 | 4 | 110 | 3.2 | 4.8 | 0.00 | 0.00 | 0.00 | 70 | 1018.5 |
| 20260508063525 | 5 | 126 | 3.2 | 4.8 | 0.00 | 0.00 | 0.00 | 66 | 1018.4 |
| 20260508062525 | 5 | 134 | 4.8 | 6.4 | 0.00 | 0.00 | 0.00 | 68 | 1018.4 |
| 20260508061525 | 5 | 168 | 6.4 | 8.0 | 0.00 | 0.00 | 0.00 | 69 | 1018.3 |
| 20260508060525 | 5 | 149 | 4.8 | 8.0 | 0.00 | 0.00 | 0.00 | 66 | 1018.2 |
| 20260508055546 | 4 | 141 | 6.4 | 8.0 | 0.00 | 0.00 | 0.00 | 70 | 1018.4 |
| 20260508054526 | 3 | 167 | 4.8 | 8.0 | 0.00 | 0.00 | 0.00 | 74 | 1018.3 |
| 20260508053517 | 3 | 174 | 6.4 | 9.7 | 0.00 | 0.00 | 0.00 | 76 | 1018.3 |
| 20260508052527 | 5 | 223 | 1.6 | 6.4 | 0.00 | 0.00 | 0.00 | 70 | 1018.4 |
| 20260508051546 | 5 | 155 | 1.6 | 4.8 | 0.00 | 0.00 | 0.00 | 63 | 1018.4 |
| 20260508050527 | 5 | 78 | 0.0 | 1.6 | 0.00 | 0.00 | 0.00 | 68 | 1018.6 |
| 20260508045527 | 6 | 126 | 3.2 | 6.4 | 0.00 | 0.00 | 0.00 | 58 | 1018.6 |
| 20260508044527 | 5 | 109 | 3.2 | 6.4 | 0.00 | 0.00 | 0.00 | 61 | 1018.6 |
| 20260508043538 | 5 | 133 | 4.8 | 8.0 | 0.00 | 0.00 | 0.00 | 66 | 1018.7 |
| 20260508042527 | 6 | 184 | 1.6 | 4.8 | 0.00 | 0.00 | 0.00 | 62 | 1018.9 |
| 20260508041518 | 5 | 158 | 3.2 | 8.0 | 0.00 | 0.00 | 0.00 | 63 | 1018.8 |
| 20260508040518 | 5 | 87 | 3.2 | 8.0 | 0.00 | 0.00 | 0.00 | 70 | 1018.6 |
| 20260508035519 | 6 | 84 | 6.4 | 9.7 | 0.00 | 0.00 | 0.00 | 69 | 1018.6 |
| 20260508034528 | 6 | 138 | 4.8 | 4.8 | 0.00 | 0.00 | 0.00 | 65 | 1018.6 |
| 20260508033519 | 6 | 165 | 8.0 | 11.3 | 0.00 | 0.00 | 0.00 | 65 | 1018.5 |
| 20260508032519 | 6 | 148 | 8.0 | 11.3 | 0.00 | 0.00 | 0.00 | 67 | 1018.5 |
| 20260508031520 | 5 | 138 | 8.0 | 11.3 | 0.00 | 0.00 | 0.00 | 67 | 1018.4 |
| 20260508030520 | 5 | 159 | 8.0 | 11.3 | 0.00 | 0.00 | 0.00 | 72 | 1018.3 |
| 20260508025529 | 5 | 146 | 6.4 | 8.0 | 0.00 | 0.00 | 0.00 | 75 | 1018.2 |
| 20260508024520 | 5 | 151 | 6.4 | 9.7 | 0.00 | 0.00 | 0.00 | 74 | 1018.1 |
| 20260508023520 | 5 | 144 | 8.0 | 9.7 | 0.00 | 0.00 | 0.00 | 76 | 1018.1 |
| 20260508022529 | 6 | 141 | 4.8 | 6.4 | 0.00 | 0.00 | 0.00 | 71 | 1018.0 |
| 20260508021550 | 7 | 100 | 3.2 | 6.4 | 0.00 | 0.00 | 0.00 | 59 | 1017.8 |
| 20260508020530 | 8 | 119 | 3.2 | 3.2 | 0.00 | 0.00 | 0.00 | 55 | 1017.8 |
| 20260508015530 | 9 | 81 | 3.2 | 4.8 | 0.00 | 0.00 | 0.00 | 55 | 1017.7 |
| 20260508014530 | 10 | 7 | 0.0 | 0.0 | 0.00 | 0.00 | 0.00 | 51 | 1017.5 |
| 20260508013531 | 10 | 313 | 3.2 | 3.2 | 0.00 | 0.00 | 0.00 | 50 | 1017.4 |
| 20260508012521 | 11 | 328 | 4.8 | 9.7 | 0.00 | 0.00 | 0.00 | 47 | 1017.4 |
| 20260508011522 | 12 | 324 | 9.7 | 14.5 | 0.00 | 0.00 | 0.00 | 42 | 1017.3 |
| 20260508010516 | 12 | 325 | 11.3 | 17.7 | 0.00 | 0.00 | 0.00 | 36 | 1017.3 |
| 20260508005522 | 13 | 327 | 9.7 | 14.5 | 0.00 | 0.00 | 0.00 | 36 | 1017.2 |
| 20260508003522 | 13 | 340 | 9.7 | 14.5 | 0.00 | 0.00 | 0.00 | 35 | 1017.1 |
| 20260508002520 | 13 | 347 | 14.5 | 22.5 | 0.00 | 0.00 | 0.00 | 32 | 1017.1 |
| 20260508001517 | 13 | 321 | 9.7 | 14.5 | 0.00 | 0.00 | 0.00 | 35 | 1017.0 |
| 20260508000517 | 13 | 314 | 9.7 | 14.5 | 0.00 | 0.00 | 0.00 | 36 | 1017.0 |
| 20260507235538 | 14 | 316 | 12.9 | 20.9 | 0.00 | 0.00 | 0.00 | 34 | 1017.0 |
| 20260507234518 | 14 | 353 | 6.4 | 14.5 | 0.00 | 0.00 | 0.00 | 34 | 1017.0 |
| 20260507233524 | 14 | 1 | 9.7 | 14.5 | 0.00 | 0.00 | 0.00 | 32 | 1017.0 |
| 20260507232538 | 14 | 9 | 11.3 | 20.9 | 0.00 | 0.00 | 0.00 | 32 | 1016.9 |
| 20260507231518 | 13 | 30 | 9.7 | 17.7 | 0.00 | 0.00 | 0.00 | 34 | 1017.0 |
| 20260507230518 | 14 | 354 | 9.7 | 16.1 | 0.00 | 0.00 | 0.00 | 33 | 1017.0 |
| 20260507225518 | 13 | 1 | 9.7 | 14.5 | 0.00 | 0.00 | 0.00 | 33 | 1017.1 |
| 20260507224519 | 13 | 21 | 11.3 | 17.7 | 0.00 | 0.00 | 0.00 | 34 | 1017.2 |
| 20260507223518 | 13 | 301 | 6.4 | 14.5 | 0.00 | 0.00 | 0.00 | 32 | 1017.3 |
| 20260507222559 | 13 | 25 | 9.7 | 14.5 | 0.00 | 0.00 | 0.00 | 34 | 1017.3 |
| 20260507221539 | 13 | 350 | 6.4 | 11.3 | 0.00 | 0.00 | 0.00 | 32 | 1017.5 |
| 20260507220519 | 13 | 337 | 6.4 | 12.9 | 0.00 | 0.00 | 0.00 | 32 | 1017.5 |
| 20260507215519 | 13 | 316 | 8.0 | 12.9 | 0.00 | 0.00 | 0.00 | 32 | 1017.7 |
| 20260507214520 | 13 | 308 | 6.4 | 11.3 | 0.00 | 0.00 | 0.00 | 32 | 1017.9 |
| 20260507213520 | 12 | 278 | 4.8 | 9.7 | 0.00 | 0.00 | 0.00 | 31 | 1018.0 |
| 20260507212539 | 12 | 69 | 4.8 | 8.0 | 0.00 | 0.00 | 0.00 | 33 | 1018.2 |
| 20260507211520 | 12 | 180 | 8.0 | 14.5 | 0.00 | 0.00 | 0.00 | 35 | 1018.4 |
| 20260507210520 | 11 | 201 | 4.8 | 9.7 | 0.00 | 0.00 | 0.00 | 35 | 1018.7 |
| 20260507205520 | 11 | 195 | 8.0 | 17.7 | 0.00 | 0.00 | 0.00 | 35 | 1018.8 |
| 20260507204541 | 11 | 218 | 8.0 | 14.5 | 0.00 | 0.00 | 0.00 | 36 | 1019.0 |
| 20260507203521 | 10 | 195 | 9.7 | 14.5 | 0.00 | 0.00 | 0.00 | 36 | 1019.1 |
| 20260507202521 | 10 | 181 | 9.7 | 14.5 | 0.00 | 0.00 | 0.00 | 37 | 1019.2 |
| 20260507201521 | 10 | 199 | 9.7 | 14.5 | 0.00 | 0.00 | 0.00 | 40 | 1019.3 |
| 20260507200521 | 9 | 178 | 9.7 | 16.1 | 0.00 | 0.00 | 0.00 | 39 | 1019.4 |
| 20260507195603 | 8 | 193 | 9.7 | 12.9 | 0.00 | 0.00 | 0.00 | 43 | 1019.5 |
| 20260507194522 | 8 | 187 | 9.7 | 16.1 | 0.00 | 0.00 | 0.00 | 41 | 1019.5 |
| 20260507193516 | 8 | 190 | 9.7 | 12.9 | 0.00 | 0.00 | 0.00 | 40 | 1019.6 |
| 20260507192522 | 7 | 198 | 11.3 | 14.5 | 0.00 | 0.00 | 0.00 | 47 | 1019.8 |
| 20260507191522 | 6 | 200 | 8.0 | 12.9 | 0.00 | 0.00 | 0.00 | 44 | 1020.0 |
| 20260507190522 | 6 | 204 | 9.7 | 12.9 | 0.00 | 0.00 | 0.00 | 49 | 1020.1 |
| 20260507185523 | 6 | 203 | 8.0 | 11.3 | 0.00 | 0.00 | 0.00 | 45 | 1020.2 |
| 20260507184517 | 6 | 200 | 8.0 | 9.7 | 0.00 | 0.00 | 0.00 | 47 | 1020.4 |
| 20260507183517 | 6 | 217 | 6.4 | 9.7 | 0.00 | 0.00 | 0.00 | 54 | 1020.5 |
| 20260507182517 | 6 | 203 | 8.0 | 9.7 | 0.00 | 0.00 | 0.00 | 51 | 1020.5 |
| 20260507181517 | 6 | 218 | 4.8 | 8.0 | 0.00 | 0.00 | 0.00 | 55 | 1020.6 |
| 20260507180518 | 6 | 220 | 6.4 | 8.0 | 0.00 | 0.00 | 0.00 | 53 | 1020.7 |
| 20260507175525 | 6 | 203 | 3.2 | 4.8 | 0.00 | 0.00 | 0.00 | 45 | 1020.8 |
| 20260507174524 | 5 | 193 | 4.8 | 6.4 | 0.00 | 0.00 | 0.00 | 50 | 1020.8 |
| 20260507173524 | 5 | 185 | 3.2 | 4.8 | 0.00 | 0.00 | 0.00 | 50 | 1021.0 |
| 20260507172524 | 5 | 172 | 3.2 | 4.8 | 0.00 | 0.00 | 0.00 | 49 | 1021.0 |
| 20260507171525 | 4 | 170 | 3.2 | 6.4 | 0.00 | 0.00 | 0.00 | 50 | 1021.1 |
| 20260507170525 | 4 | 195 | 4.8 | 6.4 | 0.00 | 0.00 | 0.00 | 48 | 1021.1 |
| 20260507165525 | 5 | 158 | 3.2 | 3.2 | 0.00 | 0.00 | 0.00 | 43 | 1021.1 |
| 20260507164525 | 4 | 141 | 3.2 | 6.4 | 0.00 | 0.00 | 0.00 | 43 | 1021.2 |
| 20260507163525 | 3 | 218 | 3.2 | 4.8 | 0.00 | 0.00 | 0.00 | 44 | 1021.3 |
| 20260507162606 | 2 | 230 | 1.6 | 4.8 | 0.00 | 0.00 | 0.00 | 44 | 1021.4 |
| 20260507161526 | 2 | 243 | 3.2 | 4.8 | 0.00 | 0.00 | 0.00 | 49 | 1021.4 |
| 20260507160520 | 2 | 254 | 6.4 | 9.7 | 0.00 | 0.00 | 0.00 | 53 | 1021.5 |
| 20260507155526 | 3 | 233 | 3.2 | 4.8 | 0.00 | 0.00 | 0.00 | 50 | 1021.4 |
| 20260507154546 | 3 | 176 | 1.6 | 1.6 | 0.00 | 0.00 | 0.00 | 46 | 1021.5 |
| 20260507153527 | 3 | 249 | 3.2 | 4.8 | 0.00 | 0.00 | 0.00 | 52 | 1021.6 |
| 20260507152527 | 3 | 285 | 1.6 | 3.2 | 0.00 | 0.00 | 0.00 | 51 | 1021.6 |
| 20260507151547 | 2 | 66 | 1.6 | 3.2 | 0.00 | 0.00 | 0.00 | 51 | 1021.7 |
| 20260507150527 | 1 | 121 | 1.6 | 3.2 | 0.00 | 0.00 | 0.00 | 56 | 1021.7 |
| 20260507145527 | 0 | 170 | 4.8 | 6.4 | 0.00 | 0.00 | 0.00 | 58 | 1021.6 |
| 20260507144528 | -1 | 149 | 3.2 | 4.8 | 0.00 | 0.00 | 0.00 | 60 | 1021.7 |
| 20260507143528 | -1 | 150 | 3.2 | 4.8 | 0.00 | 0.00 | 0.00 | 60 | 1021.6 |